Regional Weather Roundup
Issued by NWS Charleston, SC

Current Version | Previous Version | Graphics & Text | Print | Product List | Glossary On
Versions: 1 2 3 4 5 6 7 8 9 10 11 12 13 14 15 16 17 18 19 20 21 22 23 24 25 26 27 28 29 30 31 32 33 34 35 36 37 38 39 40 41 42 43 44 45 46 47 48 49 50
000
ASUS42 KCHS 231925
RWRCHS

REGIONAL WEATHER ROUNDUP
NATIONAL WEATHER SERVICE CHARLESTON SC
300 PM EDT THU OCT 23 2014

NOTE: "FAIR" INDICATES FEW OR NO CLOUDS BELOW 12,000 FEET WITH NO
SIGNIFICANT WEATHER AND/OR OBSTRUCTIONS TO VISIBILITY.

NOT ALL STATIONS ARE QUALITY CONTROLLED BY THE NATIONAL
WEATHER SERVICE. USE DATA WITH CAUTION...ESPECIALLY
DEWPOINT OBSERVATIONS.

SCZ027-030-031-034>040-042>050-232000-
...SOUTH CAROLINA...

CITY           SKY/WX    TMP DP  RH WIND       PRES   REMARKS
N CHARLESTON   SUNNY     71  44  37 NW3       30.00F
WATERFRONT PRK   N/A     70 N/A N/A W5          N/A
FORT JOHNSON   NOT AVBL
JOHNS ISLAND   CLEAR     70  46  43 CALM      30.00F
PINOPOLIS      NOT AVBL
MONCKS CORNER  FAIR      68  48  49 N5        30.00F
SUMMERVILLE    FAIR      70  45  40 N10       30.00F
BEAUFORT MCAS  SUNNY     69  45  41 VRB6      30.01F
BEAUFORT ARPT  FAIR      68  48  49 NW7       30.01S
HILTON HEAD IS SUNNY     66  46  48 N7        30.03F
GEORGETOWN     NOT AVBL
WALTERBORO     CLEAR     70  37  30 W5        30.01F
ORANGEBURG     SUNNY     68  41  37 W7        30.00F
BARNWELL       FAIR      72  41  33 NW8       30.01F
AIKEN          FAIR      70  45  40 NW7       30.04F
MANNING        FAIR      72  45  37 NW8       29.98F
KINGSTREE      NOT AVBL
COLUMBIA       SUNNY     69  38  32 W7        30.00F
SUMTER         SUNNY     69  42  37 NW8       29.97F
FLORENCE       SUNNY     69  41  36 NW13G20   29.98F
MYRTLE BEACH   SUNNY     70  43  37 NW10      29.97F
N MYRTLE BEACH SUNNY     68  43  40 W8        29.96F

$$

GAZ063-065-086>088-099>101-113>116-118-119-134-136>141-150-232000-
...GEORGIA...

CITY           SKY/WX    TMP DP  RH WIND       PRES   REMARKS
SAVANNAH ARPT  SUNNY     70  44  39 W3        30.02F
HUNTER AAF     SUNNY     69  46  43 NW8       30.00F
FORT STEWART   SUNNY     71  45  39 CALM      30.00F
STATESBORO     NOT AVBL
SYLVANIA       CLEAR     76  49  38 N5        30.02F
CLAXTON        FAIR      72  45  37 CALM      30.01F
THOMSON        SUNNY     69  50  49 NW6       30.07F
AUGUSTA-BUSH   SUNNY     72  39  30 W8        30.01F
AUGUSTA-DANIEL SUNNY     70  36  28 NW9       30.02F
SWAINSBORO     FAIR      73  45  35 MISG      30.03F
VIDALIA        SUNNY     70  45  40 CALM      30.02F
ALMA           SUNNY     72  42  34 VRB6      30.02F
WAYCROSS       SUNNY     74  45  35 NW3       30.02F
JESUP          FAIR      73  45  35 CALM      30.01F
BRUNSWICK      SUNNY     73  43  33 W5        30.01F
SAINT SIMONS   SUNNY     71  43  36 NW7       30.01F

$$

SCZ027-028-034-036>038-045-046-048>050-GAZ119-141-232000-
...LAKE AND SUPPLEMENTAL COASTAL OBSERVATIONS...

STATION/POSITION TIME  TEMP    WIND        PRES    WAVE   SWELL
                       AIR SEA DIR/SP/G            HT/PER HT/PER/DIR
                 (UTC) (F)     (DEG/KT/KT) (MB)    (FT/S) (FT/S/D)
UPR LAKE MARION  NOT AVBL
WINYAH BAY       1900   67     300/  6     1015.0S
LAKE MURRAY      1800   68     300/  2/  7 1015.9F
ACE BASIN NERRS  1900   68     340/  2     1016.0S
FORT PULASKI     1900   66     270/  7/  8 1016.4F
SAPELO ISLAND    NOT AVBL

$$

ANZ835-935-AMZ111-154-330-350-352-354-374-450-454-472-232000-
...C-MAN AND BUOY OBSERVATIONS...

STATION/POSITION TIME  TEMP    WIND        PRES    WAVE   SWELL
                       AIR SEA DIR/SP/G            HT/PER HT/PER/DIR
                 (UTC) (F)     (DEG/KT/KT) (MB)    (FT/S) (FT/S/D)
FOLLY BEACH CMAN 1900   67     270/  4/  7 1016.3F
BUOY 41004       1900   63 78  310/ 10/ 12 1015.7F   3/ 5   2/ 5
BUOY 41008       1900   64 75  350/  6/  8 1016.9F   2/ 5   2/ 60/ 5
5E ST. MARYS GA  1900      76                N/A     3/ 5
FRYING PAN BUOY  1900   63 74  280/ 14/ 17 1015.2F   2/ 5   2/140/10
BUOY 41025       1900   63     290/ 17/ 21 1011.4F   5/ 6   3/ 30/ 9
CAPE LOOKOUT NC  1900   65     280/ 15/ 18 1012.0F
BUOY 41002       1827   71 78  300/ 16/ 19 1013.8F   8/ 9   5/ 9
BUOY 41010       1900   74 81   10/ 10/ 14 1014.7F   3/ 7   3/ 20/ 7
BUOY 41012       NOT AVBL
ST AUGUSTINE FL  1900   70      10/ 11/ 13 1016.4F
CAPERS NEARSHORE NOT AVBL
FRIPP NEARSHORE  NOT AVBL


$$



USA.gov is the U.S. government's official web portal to all federal, state and local government web resources and services.